Location: Franzen
(48.6167°N, 15.3833°E)
Time: 13:49:18
(UTC+00:00)

Cosmos 1633 - Pass Details

Date: 22 April 2021
Orbit: 460 x 479 km, 82.5° (Epoch: 16 May)

Event Time Altitude Azimuth Distance (km) Brightness Sun altitude
Rises 19:00:46 0° 355° (N) 2,538 6.8 -9.8°
Reaches altitude 10° 19:02:56 10° 1° (N) 1,651 5.7 -10.1°
Maximum altitude 19:06:26 47° 77° (ENE) 637 2.8 -10.6°
Enters shadow 19:09:16 14° 149° (SSE) 1,388 4.3 -11.0°
